sat.trackr.live / text

‹ back to catalog

STARLINK-31801

NORAD 59647 · 2024-082S

PAYLOAD ACTIVE UNKNOWN

§ Identity

Operator
Country
US
Launch date
2024-05-03
Launch site
AFETR
Launch vehicle
Mass (kg)
RCS (m²)

Purposes: comms

External: N2YO · Heavens-Above · Gunter

§ Orbital elements

Epoch: 2026-09-21T21:27:11.092032Z

Period
94.27 min
Inclination
43.0015°
Eccentricity
0.0000452
Mean motion
15.27576500 rev/d
Perigee alt
482.7 km
Apogee alt
483.4 km
Semi-major
6,861.2 km
B*
5.6508e-6
RAAN
112.1944°
Arg perigee
272.3201°
Mean anomaly
87.7599°
Rev number
13,486

§ Raw data

STARLINK-318011 59647U 24082S   26264.89387838 -.00000106  00000+0  56508-5 0  99972 59647  43.0015 112.1944 0000452 272.3201  87.7599 15.27576500134861

JSON: /api/v1/satellites/59647 · /tle

For live sub-satellite position, see the globe view (requires WebGL).

§ Visibility from observer

Set your observer location to see the next 7 days of passes ≥ 10°. The values pass through the URL so the page stays shareable.

No JS? Fill the form by hand. The geolocation button needs JavaScript.